Location: Buckeye Ditch
(40.9104°N, 122.9517°W)
Time: 13:38:53
(UTC+00:00)

Vanguard 1 - All Passes

Search period start: 18 May 2025 00:00
Search period end: 28 May 2025 00:00
Orbit: 650 x 3821 km, 34.2° (Epoch: 17 May)

Date Brightness Start Highest point End Pass type
(mag) Time Alt. Az. Time Alt. Az. Time Alt. Az.
18 May - 01:17:59 10° SW 01:34:31 43° SSE 01:44:11 10° E daylight
18 May - 03:43:09 10° WSW 03:56:31 58° S 04:03:43 10° E visible
18 May - 06:08:30 10° W 06:16:52 41° SSW 06:22:02 10° SE visible
18 May - 23:15:02 10° SSW 23:30:53 28° SSE 23:42:04 10° E daylight
19 May - 01:37:03 10° SW 01:54:03 49° SSE 02:03:39 10° E daylight
19 May - 04:02:53 10° WSW 04:15:54 59° S 04:22:55 10° ESE visible
19 May - 06:28:18 10° W 06:35:58 34° SSW 06:40:53 10° SE visible
19 May - 21:20:18 10° SSE 21:26:52 12° SE 21:32:50 10° ESE daylight
19 May - 23:32:51 10° SSW 23:50:26 34° SSE 00:02:10 10° E daylight
20 May - 01:56:24 10° WSW 02:13:34 55° SSE 02:23:00 10° E daylight
20 May - 04:22:41 10° W 04:35:16 57° S 04:42:04 10° ESE visible
20 May - 06:48:13 10° W 06:54:56 27° SSW 06:59:31 10° SSE visible
20 May - 21:33:54 10° S 21:46:18 18° SE 21:56:40 10° ESE daylight
20 May - 23:51:12 10° SW 00:09:58 41° SSE 00:21:58 10° E daylight
21 May - 02:15:58 10° WSW 02:33:05 60° S 02:42:20 10° E daylight
21 May - 04:42:32 10° W 04:54:34 54° SSW 05:01:10 10° ESE visible
21 May - 07:08:23 10° W 07:13:48 20° SW 07:17:48 10° S visible
21 May - 21:50:02 10° S 22:05:44 24° SE 22:18:09 10° E daylight
22 May - 00:09:58 10° SW 00:29:32 47° SSE 00:41:34 10° E daylight
22 May - 02:35:41 10° WSW 02:52:34 63° S 03:01:36 10° E daylight
22 May - 05:02:23 10° W 05:13:47 48° SSW 05:20:11 10° SE visible
22 May - 07:29:10 10° WSW 07:32:34 14° SW 07:35:24 10° SSW visible
22 May - 22:07:14 10° SSW 22:25:10 30° SE 22:38:45 10° E daylight
23 May - 00:29:03 10° SW 00:49:05 54° SSE 01:01:03 10° E daylight
23 May - 02:55:30 10° WSW 03:12:03 64° S 03:20:50 10° ESE daylight
23 May - 05:22:18 10° W 05:32:53 41° SSW 05:39:04 10° SE visible
23 May - 20:12:32 10° SSE 20:21:01 13° SE 20:28:57 10° ESE daylight
23 May - 22:25:06 10° SSW 22:44:38 37° SSE 22:58:53 10° E daylight
24 May - 00:48:24 10° WSW 01:08:40 59° SSE 01:20:28 10° E daylight
24 May - 03:15:24 10° W 03:31:30 63° S 03:40:01 10° ESE daylight
24 May - 05:42:17 10° W 05:51:53 33° SSW 05:57:45 10° SSE visible
24 May - 20:26:41 10° S 20:40:16 19° SE 20:52:27 10° E daylight
24 May - 22:43:27 10° SW 23:04:09 44° SSE 23:18:43 10° E daylight
25 May - 01:07:58 10° WSW 01:28:16 64° S 01:39:49 10° E daylight
25 May - 03:35:21 10° W 03:50:51 59° SSW 03:59:09 10° ESE daylight
25 May - 06:02:26 10° W 06:10:44 26° SW 06:16:11 10° SSE visible
25 May - 20:42:56 10° S 20:59:31 25° SE 21:13:57 10° E daylight
25 May - 23:02:10 10° SW 23:23:41 50° SSE 23:38:23 10° E daylight
26 May - 01:27:43 10° WSW 01:47:51 66° S 01:59:08 10° E daylight
26 May - 03:55:18 10° W 04:10:09 54° SSW 04:18:11 10° SE visible
26 May - 06:22:56 10° W 06:29:28 19° SW 06:34:10 10° S visible
26 May - 21:00:10 10° SSW 21:18:49 32° SE 21:34:37 10° E daylight
26 May - 23:21:13 10° SW 23:43:16 57° SSE 23:57:56 10° E daylight
27 May - 01:47:34 10° WSW 02:07:26 67° S 02:18:25 10° ESE daylight
27 May - 04:15:18 10° W 04:29:20 47° SSW 04:37:06 10° SE visible
27 May - 06:44:19 10° WSW 06:48:06 13° SW 06:51:13 10° SSW visible
27 May - 19:06:25 10° SSE 19:14:54 13° SE 19:23:17 10° ESE daylight
27 May - 21:18:01 10° SSW 21:38:09 39° SE 21:54:50 10° E daylight
